Location: Unspecified
(0.0000°N, 0.0000°E)
Time: 02:44:04
(UTC+02:00)

HO-68 - Visible Passes

Search period start: 25 April 2014 00:00
Search period end: 05 May 2014 00:00
Orbit: 1193 x 1204 km, 100.3° (Epoch: 24 April)

Date Brightness Start Highest point End Pass type
(mag) Time Alt. Az. Time Alt. Az. Time Alt. Az.
25 Apr ? 23:32:58 12° NNW 23:32:58 12° NNW 23:33:21 10° NNW visible
26 Apr ? 23:15:44 15° NNW 23:15:44 15° NNW 23:16:42 10° NNW visible
27 Apr ? 22:58:30 17° N 22:58:30 17° N 22:59:50 10° N visible
28 Apr ? 22:41:16 17° N 22:41:16 17° N 22:42:47 10° N visible
29 Apr ? 22:24:02 16° NNE 22:24:02 16° NNE 22:25:29 10° N visible
30 Apr ? 22:06:48 14° NNE 22:06:48 14° NNE 22:07:55 10° NNE visible
01 May ? 21:49:34 11° NE 21:49:34 11° NE 21:49:54 10° NE visible
01 May ? 23:39:01 12° NNW 23:39:01 12° NNW 23:39:34 10° NNW visible
02 May ? 23:21:47 16° NNW 23:21:47 16° NNW 23:23:01 10° NNW visible
03 May ? 23:04:34 19° NNW 23:04:34 19° NNW 23:06:14 10° NNW visible
04 May ? 22:47:20 20° N 22:47:20 20° N 22:49:16 10° N visible
